Regional Weather Roundup
Issued by NWS

Home | Current Version | Previous Version | Text Only | Print | Product List | Glossary On
Versions: 1 2 3 4 5 6 7 8 9 10 11 12 13 14 15 16 17 18 19 20 21 22 23 24 25 26 27 28 29 30 31 32 33 34 35 36 37 38 39 40 41 42 43 44 45 46 47 48 49 50
000
ASUS44 KFWD 281715
RWRTX
NORTH TEXAS HOURLY WEATHER ROUNDUP
NATIONAL WEATHER SERVICE FORT WORTH TX
1200 PM CDT THU JUL 28 2016

NOTE: "FAIR" INDICATES FEW OR NO CLOUDS BELOW 12,000 FEET WITH NO
SIGNIFICANT WEATHER AND/OR OBSTRUCTIONS TO VISIBILITY.

TXZ118-119-281800-
DALLAS/FORT WORTH METROPLEX

CITY           SKY/WX    TMP DP  RH WIND       PRES   REMARKS
DFW AIRPORT    CLOUDY    91  71  51 SW9       29.98F HX  97
DALLAS LOVE    CLOUDY    89  72  56 SW7       29.99S HX  96
FTW MEACHAM    MOSUNNY   94  70  45 SW10      29.98F HX 100
DAL-EXECUTIVE  CLOUDY    90  70  51 W10       29.99F HX  95
FTW-ALLIANCE   MOSUNNY   92  70  48 SW9       29.98F HX  97
FTW-NAS-JRB    MOSUNNY   93  69  45 SW10G18   29.99F HX  98
FTW-SPINKS     SUNNY     90  72  55 SW10      30.02S HX  96
ARLINGTON      CLOUDY    87  71  58 SW12      30.00S HX  93
GRAND PRAIRIE  SUNNY     88  70  55 SW9       30.01F HX  92
ADDISON        SUNNY     86  73  66 W5        30.01F HX  93
MESQUITE       MOSUNNY   91  68  46 SW9       29.99F HX  95
LANCASTER      SUNNY     90  71  53 SW7       30.00F HX  96
$$

TXZ091>094-102>105-117-120-121-131>134-281800-
NORTH CENTRAL TEXAS

CITY           SKY/WX    TMP DP  RH WIND       PRES   REMARKS
SHRMAN/DENISON MOSUNNY   91  71  52 W6        29.99F HX  97
BOWIE          MOSUNNY   88  73  61 S7        30.00S HX  95
BRIDGEPORT     MOSUNNY   90  72  55 S7        30.01F HX  96
DECATUR        SUNNY     87  71  58 S7        30.00F HX  92
DENTON         SUNNY     88  73  61 SW7       29.99S HX  95
MCKINNEY       CLOUDY    87  72  60 W8        29.99F HX  93
GREENVILLE     CLOUDY    86  70  58 SW12      30.00F HX  90
ROCKWALL       CLOUDY    85  72  64 SW9G17    29.99S HX  91
TERRELL        CLOUDY    88  69  53 SW12      30.00F HX  92
WAXAHACHIE     CLOUDY    85  74  68 SW9       30.02S HX  92
CLEBURNE       CLOUDY    84  75  74 S9        30.03S HX  92
GRANBURY       CLOUDY    90  70  51 SW9       30.02S HX  95
$$

TXZ083>090-098>101-113>116-127>130-139>142-154-155-281800-
WESTERN NORTH TEXAS

CITY           SKY/WX    TMP DP  RH WIND       PRES   REMARKS
WICHITA FALLS  MOSUNNY   92  71  50 E6        29.97F HX  98
WF-KICKAPOO    SUNNY     92  69  46 SE6       29.98F HX  96
VERNON         SUNNY     91  66  43 E6        30.00S HX  93
ABILENE        MOSUNNY   88  67  49 VRB7      30.06S HX  91
CISCO          MOSUNNY   86  72  62 S8G15     30.06S HX  92
BRECKENRIDGE   SUNNY     92  65  41 NW5       30.01S HX  94
GRAHAM         SUNNY     92  72  52 SW6       29.98F HX  99
MINERAL WELLS  SUNNY     90  71  53 VRB5      30.00S HX  96
STEPHENVILLE   MOSUNNY   86  71  59 SW7       30.07S HX  91
COMANCHE       CLOUDY    81  73  75 SW6       30.06S
BROWNWOOD      CLOUDY    86  70  58 SW3       30.06S HX  90
COLEMAN        CLOUDY    83  71  66 S3        30.07S
$$

TXZ143>147-156>162-174-175-281800-
CENTRAL TEXAS

CITY           SKY/WX    TMP DP  RH WIND       PRES   REMARKS
WACO           MOSUNNY   89  71  55 SW12      30.01F HX  95
WACO-TSTC      SUNNY     90  73  58 S12       30.01F HX  98
WACO-MCGREGOR  CLOUDY    90  74  59 W9        30.01F THUNDER HX  99
HILLSBORO      CLOUDY    87  72  61 W9        30.01F HX  92
CORSICANA      PTSUNNY   92  72  51 SW13      30.02S HX  99
MEXIA          MOSUNNY   89  73  60 W7        30.01S HX  96
HEARNE         MOSUNNY   90  74  58 SW7       30.02S HX  99
CAMERON        MOSUNNY   90  73  56 SW8G17    30.01S HX  97
TEMPLE         SUNNY     92  73  53 SW13      30.02S HX 100
KILLEEN        NOT AVBL
KILLEEN-SKYLRK MOSUNNY   90  72  55 SW10      30.02F HX  97
GATESVILLE     SUNNY     90  70  51 W6        30.04F HX  95
HAMILTON       CLOUDY    85  71  62 W7        30.06S HX  91
LAMPASAS       MOSUNNY   91  76  62 SW8       30.03F HX 103
$$

TXZ095>097-106>112-122>126-135>138-148>153-164>167-281800-
EAST TEXAS

CITY           SKY/WX    TMP DP  RH WIND       PRES   REMARKS
PARIS          CLOUDY    82  70  65 S7        30.01S
SULPHUR SPRNGS CLOUDY    85  69  57 SW10      30.02S
MOUNT PLEASANT CLOUDY    85  73  66 SW5       30.02S HX  91
GILMER         CLOUDY    85  77  77 SW7       30.00F HX  94
MINEOLA        CLOUDY    88  73  62 SE9       30.02R HX  96
TYLER          CLOUDY    82  72  71 S10       30.01S
LONGVIEW       CLOUDY    85  76  74 W5        29.99F HX  94
MARSHALL       CLOUDY    74  70  88 SW9G21    30.05R VSB 3/4
ATHENS         LGT RAIN  81  72  74 SW5       30.00S
PALESTINE      MOSUNNY   89  75  64 SW9       30.02F HX  99
JACKSONVILLE   CLOUDY    87  74  66 SW9       30.04F HX  95
HENDERSON      CLOUDY    85  75  72 SW9       30.02F HX  93
CENTER         CLOUDY    87  80  79 SW5       30.02F HX 101
NACOGDOCHES    CLOUDY   N/A N/A N/A W14       29.99F
LUFKIN         SUNNY     89  76  65 SW12      30.01F HX 100
$$

SUPPLEMENTAL OBSERVATIONS (CENTRAL)

CITY           SKY/WX    TMP DP  RH WIND       PRES   REMARKS
DENISON DAM      N/A     88  72  58 W1          N/A  HX  94
CADDO GRASSLND   N/A     91  75  59 SW6         N/A  HX 102
PAT MAYSE LAKE   N/A     81  75  83 S8          N/A
GREENVILLE       N/A     88  72  58 W12         N/A  HX  94
CEDAR HILL       N/A     90  72  55 SW7         N/A  HX  96
ATHENS           N/A     79  75  89 CALM        N/A
LAKE LIMESTONE   N/A     88  75  66 SW10        N/A  HX  97
MCGREGOR         N/A     91  75  59 SW6G15      N/A  HX 102
TEMPLE           N/A     93  72  49 SW5G15      N/A  HX 100
$$

SUPPLEMENTAL OBSERVATIONS (WEST)

CITY           SKY/WX    TMP DP  RH WIND       PRES   REMARKS
MILLERS CREEK    N/A     91  70  49 S7          N/A  HX  97
POSSUM KINGDOM   N/A     93  70  46 NW5         N/A  HX  99
LBJ GRASSLAND    N/A     90  73  58 S6          N/A  HX  98
GRANBURY         N/A     91  72  52 SW10        N/A  HX  98
COMANCHE         N/A     84  72  65 SW8         N/A
HAMBY            N/A     91  68  46 SW5G16      N/A  HX  95
IVIE RESERVOIR   N/A     84  72  65 E5          N/A
COLORADO BEND    N/A     84  70  61 W7          N/A
$$

SUPPLEMENTAL OBSERVATIONS (EAST)

CITY           SKY/WX    TMP DP  RH WIND       PRES   REMARKS
CLARKSVILLE      N/A     79  77  94 SE3         N/A
CADDO LAKE       N/A     82  73  74 CALM        N/A
GILMER           N/A     88  77  70 W8G16       N/A  HX 100
HENDERSON        N/A     88  75  66 SW12        N/A  HX  97
N SABINE NF      N/A     86  77  74 MISG        N/A  HX  97
S SABINE NF      N/A     88  77  70 SW3         N/A  HX 100
$$

SUPPLEMENTAL OBSERVATIONS ARE A COLLECTION OF AUTOMATED INSTRUMENTS
THAT ARE MAINTAINED BY A VARIETY OF FEDERAL AND STATE AGENCIES.
CERTAIN ELEMENTS...SUCH AS HUMIDITY VALUES AND SUSTAINED WIND
SPEEDS...MAY BE APPROXIMATED.




USA.gov is the U.S. government's official web portal to all federal, state and local government web resources and services.